www.pogodaiklimat.ru

Погода и климат >> Архив погоды >> Япония >> Акита


ПОГОДА в Аките

  • Прогноз погоды в Аките
  • Монитор погоды в Аките

АРХИВ ПОГОДЫ в Аките

Время (UTC), дата Ветер
(напр.,м/с)
 
Видим.   Явления Облачность Т
(С)
Тd
(С)
f
(%)
Тe
(С)
Тes
(С)
Комфортность P
(гПа)
Po
(гПа)
Тmin
(С)
Tmax
(С)
R
(мм)
R24
(мм)
S
(см)
01 10.06 ЮВ 8 н/о н/о +22.0 +10.8 49 +24 +24 комфорт 1007.1 1004.6
02 10.06 ЮВ 7 н/о н/о +23.3 +10.4 44 +25 +25 комфорт 1006.6 1004.1
03 10.06 ЮВ 8 50 км 9/1
[Cu hum Ac trans Ci sp]
+24.4 +11.0 43 +26 +28 жарко 1006.2 1003.7
04 10.06 ЮВ 7 н/о н/о +24.3 +10.6 42 +25 +25 комфорт 1005.9 1003.4
05 10.06 ЮВ 7 н/о н/о +24.1 +11.1 44 +25 +25 комфорт 1005.7 1003.2
06 10.06 ЮВ 7 50 км 8/3
[Cu med, cong Ac trans Ci sp]
+24.2 +10.5 42 +25 +27 комфорт 1006.0 1003.5
07 10.06 ЮВ 8 н/о н/о +22.9 +11.0 47 +25 +25 комфорт 1006.0 1003.5
08 10.06 ЮВ 10 н/о н/о +21.5 +11.0 51 +23 +23 комфорт 1006.4 1003.9
09 10.06 ЮВ 6 30 км 9/1
[Cu hum Ac As Ci sp]
+20.6 +10.7 53 +22 +22 комфорт 1006.7 1004.2
10 10.06 ЮВ 6 н/о н/о +19.7 +10.4 55 +21 +21 комфорт 1007.7 1005.2
11 10.06 ЮВ 6 н/о н/о +18.8 +10.1 57 +19 +19 1007.6 1005.1
12 10.06 ЮВ 6 15 км 9/1
[Cu hum Ci sp]
+17.9 +10.1 60 +17 +17 1008.6 1006.0 +25.7
13 10.06 ЮВ 7 н/о н/о +17.3 +9.2 59 +16 +16 1008.7 1006.1
14 10.06 В 7 н/о н/о +17.0 +8.4 57 +16 +16 1008.6 1006.0
15 10.06 В 5 н/о н/о +16.5 +8.2 58 +16 +16 1008.4 1005.8
16 10.06 В 4 н/о н/о +16.2 +8.4 60 +16 +16 1008.2 1005.6
17 10.06 В 5 н/о н/о +16.1 +8.1 59 +15 +15 1007.7 1005.1
18 10.06 ЮВ 4 15 км 9/0
[Ci sp]
+15.9 +8.2 60 +15 +15 1008.0 1005.4
19 10.06 В 2 н/о н/о +15.5 +8.3 62 +15 +15 1008.5 1005.9
20 10.06 СВ 2 н/о н/о +15.0 +8.3 64 +15 +15 1008.9 1006.3
21 10.06 СВ 2 60 км 10/0
[Ac As]
+14.8 +8.7 67 +15 +16 1009.3 1006.7
22 10.06 СВ 1 н/о н/о +15.8 +9.0 64 +17 +17 1009.6 1007.0
23 10.06 ЮВ 5 н/о н/о +17.0 +8.4 57 +16 +16 1009.8 1007.2
00 11.06 ЮВ 5 25 км 9/1
[St Ac As]
+17.9 +9.0 56 +17 +20 1009.6 1007.0 +14.6
01 11.06 ЮВ 6 н/о н/о +18.5 +8.8 53 +18 +18 1009.2 1006.6
02 11.06 ЮВ 5 н/о н/о +19.8 +9.1 50 +21 +21 комфорт 1008.8 1006.3
03 11.06 ЮВ 5 30 км 9/3
[Cu hum Ac As]
+21.5 +9.4 46 +23 +26 комфорт 1008.7 1006.2
04 11.06 ЮВ 6 н/о н/о +21.0 +9.0 46 +22 +22 комфорт 1008.4 1005.9
05 11.06 ЮВ 4 н/о н/о +23.5 +9.9 42 +25 +25 комфорт 1007.9 1005.4
06 11.06 В 4 25 км 5/3
[Cu Sc Ac trans Cc]
+23.7 +7.8 36 +24 +29 комфорт 1007.4 1004.9
07 11.06 СЗ 5 н/о н/о +22.1 +10.6 48 +24 +24 комфорт 1007.4 1004.9
08 11.06 С 4 н/о н/о +21.8 +10.6 49 +24 +24 комфорт 1007.3 1004.8
09 11.06 С 3 30 км 3/1
[Cu Sc Ac trans Ci sp]
+20.9 +11.8 56 +23 +24 комфорт 1007.4 1004.9
10 11.06 СЗ 2 н/о н/о +20.0 +11.8 59 +22 +22 комфорт 1007.3 1004.8
11 11.06 В 2 н/о н/о +19.3 +12.6 65 +21 +21 комфорт 1007.8 1005.3
12 11.06 ЮВ 4 20 км 6/1
[Sc Ac trans]
+18.6 +9.4 55 +19 +19 1008.6 1006.0 +24.6
13 11.06 ЮВ 4 н/о н/о +17.8 +9.7 59 +18 +18 1008.4 1005.8
14 11.06 ЮВ 3 н/о н/о +17.5 +7.8 53 +18 +18 1008.6 1006.0
15 11.06 С 3 н/о н/о +16.2 +9.6 65 +16 +16 1008.5 1005.9
16 11.06 С 2 н/о н/о +15.3 +10.5 73 +15 +15 1008.3 1005.7
17 11.06 СВ 2 н/о н/о +15.2 +10.8 75 +15 +15 1008.4 1005.8
18 11.06 В 1 20 км 9/1
[Sc Ac As]
+15.7 +10.9 73 +17 +17 1008.3 1005.7
19 11.06 В 1 н/о н/о +15.4 +10.4 72 +17 +17 1008.7 1006.1
20 11.06 СВ 1 н/о н/о +14.9 +10.5 75 +15 +15 1008.8 1006.2
21 11.06 В 2 30 км 9/1
[Sc Ac As Ci fib]
+16.2 +9.6 65 +16 +17 1009.1 1006.5
22 11.06 ЮВ 3 н/о н/о +17.5 +8.9 57 +18 +18 1009.0 1006.4
23 11.06 ЮВ 4 н/о н/о +18.6 +8.3 51 +19 +19 1009.0 1006.4
00 12.06 ЮВ 3 60 км 9/1
[Cu hum Ac As]
+20.0 +8.7 48 +22 +26 комфорт 1008.8 1006.3 +14.7
01 12.06 ЮВ 2 н/о н/о +20.8 +9.1 47 +23 +23 комфорт 1008.7 1006.2
02 12.06 Ю 3 н/о н/о +21.6 +7.8 41 +23 +23 комфорт 1008.3 1005.8
03 12.06 ЮЗ 3 60 км 8/1
[Sc Ci sp]
+23.0 +8.7 40 +24 +37 комфорт 1008.1 1005.6
04 12.06 З 6 н/о н/о +23.0 +9.4 42 +25 +25 комфорт 1007.8 1005.3
05 12.06 З 6 н/о н/о +22.9 +8.6 40 +24 +24 комфорт 1007.5 1005.0
06 12.06 З 7 60 км 3/1
[Cu med, cong Ci fib]
+22.5 +8.6 41 +24 +27 комфорт 1007.5 1005.0
07 12.06 З 6 н/о н/о +21.7 +10.8 50 +24 +24 комфорт 1007.7 1005.2
08 12.06 СЗ 5 н/о н/о +21.8 +10.9 50 +24 +24 комфорт 1007.7 1005.2
09 12.06 С 6 25 км 1/1
[Cu med, cong Ac trans Ci sp]
+20.2 +10.6 54 +22 +22 комфорт 1008.1 1005.6
10 12.06 С 5 н/о н/о +19.2 +10.8 58 +20 +20 1008.4 1005.9
11 12.06 СЗ 3 н/о н/о +18.4 +10.5 60 +19 +19 1009.0 1006.4
12 12.06 С 2 15 км ясно +17.5 +11.3 67 +18 +18 1009.5 1006.9 +24.2
13 12.06 С 1 н/о н/о +17.0 +11.5 70 +18 +18 1009.7 1007.1
14 12.06 ЮВ 3 н/о н/о +16.2 +11.2 72 +16 +16 1009.8 1007.2
15 12.06 В 1 н/о н/о +15.3 +11.5 78 +16 +16 1009.9 1007.3
16 12.06 ЮВ 2 н/о н/о +14.6 +11.4 81 +14 +14 1010.0 1007.4
17 12.06 ЮВ 2 н/о н/о +14.0 +11.2 83 +14 +14 1010.3 1007.7
18 12.06 ЮВ 1 10 км 6/6
[St]
+13.8 +11.0 83 +14 +14 1011.0 1008.4
19 12.06 ЮВ 2 н/о н/о +13.3 +10.8 85 +13 +13 1011.4 1008.8
20 12.06 ЮВ 2 н/о н/о +13.1 +11.2 88 +13 +13 1011.7 1009.1
21 12.06 ЮВ 2 10 км 3/3
[Cu med, cong Ci fib]
+14.3 +11.3 82 +14 +15 1012.0 1009.4
22 12.06 Ю 2 н/о н/о +18.2 +13.1 72 +19 +19 1012.8 1010.2
23 12.06 З 5 н/о н/о +18.7 +13.3 71 +19 +19 1013.2 1010.6
00 13.06 З 5 25 км 6/6
[Cu Sc]
+19.3 +12.6 65 +20 +24 1013.3 1010.7 +12.8
01 13.06 З 5 н/о н/о +20.0 +12.5 62 +22 +22 комфорт 1013.5 1010.9
02 13.06 ЮЗ 4 н/о н/о +20.8 +11.4 55 +23 +23 комфорт 1013.4 1010.9
03 13.06 З 6 30 км 3/3
[Cu Sc]
+20.8 +10.9 53 +23 +29 комфорт 1013.2 1010.7
04 13.06 З 6 н/о н/о +20.8 +11.4 55 +23 +23 комфорт 1013.1 1010.6
05 13.06 ЮЗ 5 н/о н/о +20.9 +11.5 55 +23 +23 комфорт 1012.9 1010.4
06 13.06 З 5 40 км 1/1
[Cu hum]
+20.1 +12.4 61 +22 +28 комфорт 1013.1 1010.5
07 13.06 З 3 н/о н/о +20.2 +11.9 59 +22 +22 комфорт 1012.6 1010.1
08 13.06 З 4 н/о н/о +19.9 +12.4 62 +22 +22 комфорт 1012.5 1009.9
09 13.06 З 3 30 км 1/1
[Cu hum]
+19.5 +12.5 64 +21 +22 комфорт 1012.8 1010.2
10 13.06 З 2 н/о н/о +18.3 +12.5 69 +19 +19 1012.9 1010.3
11 13.06 З 2 н/о н/о +17.8 +12.7 72 +19 +19 1013.4 1010.8
12 13.06 СВ 2 15 км 1/0
[Ci sp]
+17.4 +12.7 74 +18 +18 1013.6 1011.0 +21.7
13 13.06 СВ 1 н/о н/о +16.3 +12.5 78 +17 +17 1013.8 1011.2
14 13.06 С 1 н/о н/о +15.8 +12.4 80 +17 +17 1013.9 1011.3
15 13.06 ЮВ 2 н/о н/о +15.0 +12.0 82 +15 +15 1013.5 1010.9
16 13.06 ЮВ 1 н/о н/о +14.2 +11.5 84 +15 +15 1013.2 1010.6
17 13.06 ЮВ 3 н/о н/о +13.9 +12.0 88 +13 +13 1013.3 1010.7
18 13.06 ЮВ 3 15 км ясно +13.7 +11.8 88 +12 +12 1013.1 1010.5
19 13.06 ЮВ 3 н/о н/о +13.6 +11.7 88 +12 +12 1012.9 1010.3
20 13.06 ЮВ 4 н/о н/о +13.8 +11.3 85 +12 +12 1012.8 1010.2
21 13.06 ЮВ 4 20 км ясно +15.7 +12.6 82 +15 +17 1012.9 1010.3
22 13.06 ЮВ 4 н/о н/о +18.3 +12.7 70 +18 +18 1012.7 1010.1
23 13.06 ЮВ 5 н/о н/о +21.1 +12.8 59 +23 +23 комфорт 1012.6 1010.1
00 14.06 ЮВ 3 60 км 9/0
[Ci fib]
+24.3 +10.9 43 +26 +36 жарко 1012.2 1009.7 +13.4
01 14.06 ЮЗ 2 н/о н/о +25.6 +9.0 35 +26 +26 жарко 1012.0 1009.5
02 14.06 ЮЗ 4 н/о н/о +27.0 +9.4 33 +27 +27 жарко 1011.8 1009.3
03 14.06 ЮЗ 6 60 км 9/0
[Ci sp]
+27.1 +9.9 34 +28 +35 жарко 1011.1 1008.6
04 14.06 З 5 н/о н/о +27.0 +10.3 35 +28 +28 жарко 1010.4 1007.9
05 14.06 З 4 н/о н/о +26.6 +10.3 36 +27 +27 жарко 1010.1 1007.6
06 14.06 З 4 40 км 9/1
[Cu med, cong Ac trans Ci sp]
+27.2 +11.7 38 +28 +32 жарко 1009.9 1007.4
07 14.06 СЗ 2 н/о н/о +25.6 +11.4 41 +27 +27 жарко 1009.6 1007.1
08 14.06 СЗ 2 н/о н/о +26.6 +9.9 35 +27 +27 жарко 1008.6 1006.1
09 14.06 С 2 30 км 9/1
[Cu med, cong Ac trans Ci sp]
+26.0 +10.6 38 +27 +27 жарко 1008.3 1005.8
10 14.06 СВ 2 н/о н/о +25.2 +12.1 44 +27 +27 жарко 1008.2 1005.7
11 14.06 ЮВ 4 н/о н/о +24.5 +15.4 57 +27 +27 жарко 1008.7 1006.2
12 14.06 В 6 15 км 9/0
[Ac trans Cs]
+23.8 +14.0 54 +26 +26 жарко 1009.0 1006.5 +28.3
13 14.06 ЮВ 6 н/о н/о +23.2 +14.0 56 +27 +27 душно 1008.7 1006.2
14 14.06 ЮВ 7 н/о н/о +22.6 +13.9 58 +26 +26 жарко 1008.1 1005.6
15 14.06 ЮВ 6 н/о н/о +22.2 +13.8 59 +25 +25 комфорт 1008.0 1005.5
16 14.06 В 6 н/о н/о +21.8 +14.0 61 +25 +25 комфорт 1007.5 1005.0
17 14.06 В 7 н/о н/о +21.6 +13.8 61 +24 +24 комфорт 1007.0 1004.5
18 14.06 В 6 15 км 10/0
[As trans]
+21.6 +13.3 59 +24 +24 комфорт 1006.7 1004.2
19 14.06 В 6 н/о н/о +21.3 +12.7 58 +24 +24 комфорт 1006.8 1004.3
20 14.06 В 6 н/о н/о +21.4 +11.7 54 +23 +23 комфорт 1006.6 1004.1
21 14.06 ЮВ 6 40 км 10/1
[Cu med, cong Ac As]
+21.4 +10.9 51 +23 +23 комфорт 1006.7 1004.2
22 14.06 ЮВ 7 н/о н/о +21.5 +11.5 53 +24 +24 комфорт 1006.8 1004.3
23 14.06 ЮВ 6 н/о н/о +21.8 +12.1 54 +24 +24 комфорт 1006.4 1003.9
00 15.06 ЮВ 7 30 км слаб. дождь 10/1
[Sc Ac As]
+21.8 +12.6 56 +24 +25 комфорт 1006.5 1004.0 +21.2 0.0
01 15.06 В 8 н/о н/о +21.0 +13.5 62 +23 +23 комфорт 1005.6 1003.1
02 15.06 В 8 н/о н/о +20.9 +12.9 60 +23 +23 комфорт 1004.6 1002.1
03 15.06 ЮВ 9 40 км в посл. час дождь 10/1
[Sc Ac As]
+22.8 +13.0 54 +26 +26 жарко 1003.8 1001.3
04 15.06 В 9 н/о н/о +21.8 +13.2 58 +24 +24 комфорт 1002.2 999.7
05 15.06 ЮВ 7 н/о н/о +22.1 +12.9 56 +25 +25 комфорт 1001.4 998.9
06 15.06 В 9 40 км {дождь} 10/1
[Sc Ac As]
+21.6 +12.2 55 +24 +24 комфорт 1000.3 997.8 0.0
07 15.06 В 10 н/о н/о +21.3 +12.2 56 +23 +23 комфорт 999.0 996.5
08 15.06 В 10 н/о н/о +21.1 +12.0 56 +23 +23 комфорт 998.2 995.7
09 15.06 В 8 40 км 9/3
[Sc Ac As]
+20.7 +12.4 59 +22 +22 комфорт 997.3 994.8
10 15.06 В 9 н/о н/о +20.6 +12.3 59 +22 +22 комфорт 996.5 994.0
11 15.06 В 9 н/о н/о +20.5 +12.2 59 +22 +22 комфорт 996.0 993.5
12 15.06 В 6 15 км 10/3
[Sc Ac As]
+20.4 +12.4 60 +22 +22 комфорт 995.3 992.8 +23.0 0.0
13 15.06 В 5 н/о н/о +20.2 +12.5 61 +22 +22 комфорт 994.7 992.2
14 15.06 В 6 н/о н/о +17.0 +15.5 91 +16 +16 992.4 989.9
15 15.06 ЮВ 3 н/о н/о +17.2 +15.2 88 +17 +17 990.4 987.9
16 15.06 СВ 3 н/о н/о +16.8 +15.5 92 +17 +17 988.8 986.3
17 15.06 СЗ 2 н/о н/о +16.4 +15.4 94 +17 +17 987.5 985.0
18 15.06 С 2 20 км {дождь} 5/3
[Sc Ac trans Ci fib]
+16.2 +15.6 96 +16 +16 986.8 984.3 3
19 15.06 СВ 2 н/о н/о +16.0 +15.5 97 +16 +16 986.7 984.2
20 15.06 В 2 н/о н/о +16.9 +15.6 92 +17 +17 986.7 984.2
21 15.06 СВ 2 20 км слаб. ливневой дождь {гроза} 9/9
[Cu Sc]
+17.1 +16.0 93 +17 +18 986.8 984.3
22 15.06 В 2 н/о н/о +17.6 +16.3 92 +18 +18 986.5 984.0
23 15.06 ЮВ 4 н/о н/о +18.3 +16.6 90 +19 +19 986.1 983.6
00 16.06 Ю 2 15 км слаб. ливневой дождь {гроза} 10/4
[Cu med, cong Ac As]
+19.0 +17.5 91 +21 +24 комфорт 986.1 983.6 +15.8 4
01 16.06 Ю 2 н/о н/о +19.4 +18.4 94 +22 +22 комфорт 985.8 983.3
02 16.06 Ю 5 н/о н/о +19.2 +18.9 98 +21 +21 комфорт 985.7 983.2
03 16.06 ЮЗ 6 2000 м ливневой дождь 10/10
[Cu med, cong]
+19.0 +18.7 98 +20 +20 985.5 983.0
04 16.06 ЮЗ 6 н/о н/о +18.7 +18.5 99 +19 +19 985.6 983.1
05 16.06 ЮЗ 6 н/о н/о +19.1 +18.9 99 +21 +21 комфорт 985.6 983.1
06 16.06 ЮЗ 4 2000 м ливневой дождь 10/10
[Cu med, cong]
+18.9 +18.9 100 +21 +21 комфорт 985.9 983.4 8
07 16.06 ЮЗ 9 н/о н/о +18.1 +18.1 100 +17 +17 986.4 983.9
08 16.06 СЗ 4 н/о н/о +18.0 +17.8 99 +18 +18 987.2 984.7
09 16.06 СЗ 6 4000 м слаб. ливневой дождь 10/10
[Cu med, cong]
+16.9 +16.4 97 +16 +16 988.9 986.4
10 16.06 СЗ 5 н/о н/о +16.2 +15.9 98 +15 +15 991.2 988.7
11 16.06 З 8 н/о н/о +16.7 +16.1 96 +15 +15 992.9 990.4
12 16.06 З 6 2500 м ливневой дождь 10/10
[Cu med, cong]
+16.2 +16.1 99 +15 +15 994.1 991.6 +19.7 36
13 16.06 З 7 н/о н/о +16.3 +15.8 97 +15 +15 995.0 992.5
14 16.06 З 5 н/о н/о +15.6 +15.1 97 +14 +14 996.6 994.0
15 16.06 СЗ 6 н/о н/о +15.2 +14.3 94 +14 +14 998.0 995.4
16 16.06 СЗ 9 н/о н/о +15.0 +13.0 88 +13 +13 999.0 996.4
17 16.06 СЗ 9 н/о н/о +14.4 +13.0 91 +12 +12 1000.4 997.8
18 16.06 СЗ 9 8000 м слаб. ливневой дождь 10/10
[Cu med, cong]
+14.4 +12.3 87 +12 +12 1001.9 999.3 3
19 16.06 СЗ 9 н/о н/о +13.9 +12.1 89 +11 +11 1003.0 1000.4
20 16.06 СЗ 8 н/о н/о +13.8 +12.2 90 +11 +11 1004.1 1001.5
21 16.06 СЗ 8 8000 м слаб. ливневой дождь 10/10
[Cu med, cong]
+14.5 +11.8 84 +12 +12 1005.0 1002.4
22 16.06 СЗ 10 н/о н/о +15.2 +11.6 79 +13 +13 1005.9 1003.3
23 16.06 СЗ 9 н/о н/о +14.6 +12.5 87 +12 +12 1007.3 1004.7
00 17.06 СЗ 8 8000 м слаб. ливневой дождь 9/9
[Cu med, cong]
+15.4 +11.8 79 +13 +14 1008.1 1005.5 +13.7 3

 

Местоположение метеостанции Акита (Япония): широта 39.72 долгота 140.10 высота над уровнем моря 21 м.

В архиве по умолчанию представлена погода в Аките за последнюю неделю. Архивные данные за месяц целиком и за предыдущие месяцы, начиная с января 2011 года, Вы можете получить, выбрав интересующий диапазон дат из раскрывающегося списка и нажав кнопку "Ввод!".


*Определитесь, кто Вы:
робот инопланетянин человек

Внимание! Время в таблицах - всемирное. Для получения местного времени необходимо прибавить поправку, которая равна 9 ч.

Смотрите также архив погоды в соседних городах и на ближайших метеорологических станциях:

Погода в Мориоке (Япония) (91 км)
Погода в Сакате (Япония) (92 км)
Погода в Фукауре (Япония) (104 км)
Погода в Синдзё (Япония) (109 км)
Погода в Аомори (Япония) (135 км)
Погода в Хатинохе (Япония) (150 км)
Погода в Офунато (Япония) (156 км)
Погода в Мияко (Япония) (159 км)
Погода в Ямаге (Япония) (165 км)
Погода в Сендае (Япония) (175 км)

Пояснения к столбцам:

Ветер - указаны скорость ветра в м/с - средняя за 10 мин, порывы в срок и между сроками (в фигурных скобках) и направление, откуда дует ветер: С - северный, СВ - северо-восточный, В - восточный, ЮВ - юго-восточный, Ю - южный, ЮЗ - юго-западный, З - западный, СЗ - северо-западный.
Видимость - горизонтальная дальность видимости в метрах или километрах. При видимости от 1 до 10 км при отсутствии осадков обычно наблюдается дымка, при ухудшении видимости до 1 км и менее - туман. В сухую погоду видимость может ухудшаться дымом, пылью или мглою.
Явления - указаны атмосферные явления, наблюдавшиеся в срок или в последний час перед сроком; фигурными скобками обозначены явления, наблюдавшиеся между сроками (за 1-3 часа до срока); квадратными скобками обозначены град или гололедные отложения с указанием их диаметра в мм.
Облачность - указаны через наклонную черту общая и нижняя облачность в баллах и высота нижней границы облаков в метрах; квадратными скобками обозначены формы облаков: Ci - перистые, Cs - перисто-слоистые, Cc - перисто-кучевые, Ac - высококучевые, As - высокослоистые, Sc - слоисто-кучевые, Ns - слоисто-дождевые, Cu - кучевые, Cb - кучево-дождевые. Подробнее классификацию облаков см. в Атласе облаков (PDF).
T - Температура воздуха - температура, измеренная на высоте 2 м над землей.
Td - Температура точки росы - температура, при понижении до которой содержащийся в воздухе водяной пар достигнет насыщения.
f - Относительная влажность воздуха - влажноcть воздуха, измеренная на высоте 2 м над землей.
Te - Эффективная температура - температура, которую ощущает одетый по сезону человек в тени. Характеристика душности погоды. При расчете учитывается влияние влажности воздуха и скорости ветра на теплоощущения человека.
Tes - Эффективная температура на солнце - температура, которую ощущает человек, с поправкой на солнечный нагрев. Характеристика знойности погоды. Зависит от высоты солнца над горизонтом, облачности и скорости ветра. Ночью, в пасмурную погоду, а также при ветре 12 м/с и более поправка равна нулю.
P - Атмосферное давление - приведенное к уровню моря атмосферное давление.
Po - Атмосферное давление - измеренное на уровне метеостанции атмосферное давление.
Tmin - Минимальная температура - минимум температуры воздуха на высоте 2 м над землей.
Tmax - Максимальная температура - максимум температуры воздуха на высоте 2 м над землей.
R - Количество осадков - Количество выпавших осадков за период времени, мм. При наведении курсора мыши на число - период времени, за который выпало указанное количество осадков.
R24 - Количество осадков - Количество выпавших осадков за 24 часа, мм.
S - Снежный покров - Высота снежного покрова, см. При наведении курсора мыши на число - состояние снежного покрова и степень покрытия местности в баллах.